Location: *
(14.2344°N, 9.2928°W)
Time: 04:18:29
(UTC+00:00)

Daily predictions for brighter satellites

Satellite Brightness Start Highest point End
(mag) Time Altitude Azimuth Time Altitude Azimuth Time Altitude Azimuth
ATLAS 2AS CENTAUR R/B 3.3 03:55:47 63° ENE 03:55:47 63° ENE 04:02:43 10° NNE
ATLAS 5 CENTAUR R/B 3.4 04:01:13 47° SE 04:01:13 47° SE 04:06:11 10° SSE
CZ-3 R/B 4.4 03:00:16 10° WNW 04:02:43 67° SW 04:16:15 10° SE
Cosmos 2237 Rocket 4.0 04:02:46 10° SSE 04:07:30 28° ESE 04:12:14 10° NE
Centaur AC-119 3.2 04:31:59 59° ENE 04:31:59 59° ENE 04:39:54 10° ESE
Milstar 3 2.7 04:30:43 68° WSW 04:31:45 88° NNW 04:38:27 10° ENE
SWIFT 3.7 04:33:37 37° E 04:33:37 37° E 04:36:14 10° ESE
DELTA-4 R/B 4.4 04:37:34 23° S 04:37:34 23° S 04:39:11 10° SE
Milstar 3 Cent rocket 2.2 04:38:35 74° NW 04:38:50 75° NNW 04:43:38 10° ENE
Delta 7925 Rocket 3.8 04:39:23 60° NNW 04:39:23 60° NNW 04:44:27 10° ENE
Molniya-1 3.9 04:47:52 55° S 04:48:37 74° ESE 04:55:06 10° NNE
H-2A ROCKET BODY 4.1 04:45:07 40° W 04:50:00 68° NNW 06:01:33 10° ENE
CZ-4B R/B 3.1 04:49:00 10° NNE 04:52:50 63° ESE 04:56:30 10° S
SL-16 R/B 4.3 04:53:03 10° SSE 04:57:41 27° ESE 05:02:19 10° NE
Cosmos 2074 Rocket 4.1 04:52:28 10° S 04:58:43 77° E 05:04:57 10° N
Ariane H10+ 4.3 05:01:13 11° SSE 05:01:13 11° SSE 05:01:26 10° SSE
Meteor 1-21 4.1 04:57:24 10° SSW 05:02:54 62° W 05:08:24 10° N
GPS 2-14 Rocket1 3.6 05:05:24 31° N 05:05:24 31° N 05:08:44 10° ENE
NOSS 3-4 (A) 3.6 05:04:33 39° W 05:05:55 45° WNW 05:11:39 10° N
NOSS 3-4 (C) 3.6 05:04:29 38° WSW 05:06:00 46° WNW 05:11:46 10° N
MSX 4.2 05:02:04 10° N 05:07:15 37° WNW 05:07:15 37° WNW
USA 234 4.5 05:03:39 10° ESE 05:09:37 39° NE 05:15:34 10° NNW
Cosmos 1140 Rocket 3.8 05:04:32 10° S 05:09:43 69° ESE 05:14:52 10° NNE
Cosmos 1184 Rocket 3.3 05:11:17 42° SSW 05:11:17 42° SSW 05:13:35 10° S
Cosmos 1844 Rocket 2.8 05:06:22 10° NNW 05:11:55 76° ENE 05:17:27 10° SSE
Cosmos 1302 Rocket 4.2 05:10:38 29° NW 05:12:55 47° W 05:17:57 10° S
Meteor 1-22 Rocket 3.9 05:08:00 10° N 05:13:16 84° W 05:18:34 10° S
Palapa B4 Rocket 4.1 05:12:28 32° WSW 05:14:04 42° SSW 05:20:18 10° SE
CZ-2C R/B 2.7 05:10:14 10° N 05:15:11 48° WNW 05:20:02 10° SSW
Okean O Rocket 3.8 05:15:37 10° NE 05:19:24 28° E 05:23:08 10° SSE
NOSS 0 Rocket 4.4 05:16:42 23° WSW 05:19:42 36° WNW 05:25:16 10° N
Cosmos 2181 Rocket 3.9 05:13:33 10° N 05:19:49 77° W 05:26:00 10° S
Cosmos 614 Rocket 4.1 05:16:21 10° SSW 05:21:24 51° WNW 05:26:28 10° N
Cosmos 1992 Rocket 4.3 05:20:30 10° N 05:25:39 67° ENE 05:30:48 10° SSE
RESURS DK-1 3.4 05:21:55 10° S 05:25:54 48° ESE 05:29:53 10° NNE
PSLV R/B 3.5 05:22:53 10° N 05:26:34 75° WNW 05:30:14 10° SSW
Cosmos 1844 3.7 05:24:08 10° NNW 05:29:54 87° ENE 05:35:36 10° SSE
Ariane 44P Rocket 4.2 05:28:33 10° SSW 05:30:27 16° SSE 05:33:55 10° ESE
SJ-12 4.5 05:27:34 10° NNE 05:31:36 62° E 05:35:40 10° S
GPS 2-17 Rocket1 3.2 05:30:04 25° WNW 05:32:17 51° N 05:36:31 10° ENE
SEDSat Delta rocket 3.5 05:31:14 19° WNW 05:34:57 83° NNE 05:40:46 10° ESE
Celestis-02/Orion 38 4.5 05:34:48 10° SSE 05:39:51 79° WSW 05:44:59 10° NNW
Cosmos 1455 Rocket 4.4 05:39:58 18° W 05:39:58 18° W 05:42:54 10° SW
Cosmos 676 Rocket 4.0 05:35:58 10° SSW 05:41:14 69° WNW 05:46:30 10° N
Meteor 1-4 Rocket 2.4 05:38:30 10° SSW 05:42:05 64° W 05:45:36 10° N
ARIANE 5 R/B 4.2 05:22:36 17° W 05:42:55 45° SSW 05:48:04 10° SE
GP-B 4.1 05:38:44 10° SSE 05:43:00 50° E 05:47:16 10° N
ATLAS 5 CENTAUR R/B 4.2 05:42:52 13° WSW 05:43:35 13° WSW 05:46:27 10° SW
ATLAS 2AS CENTAUR R/B 4.3 05:43:21 14° W 05:46:09 17° WNW 05:50:59 10° NNW
Cosmos 1892 Rocket 3.6 05:46:25 10° S 05:50:53 87° E 05:55:20 10° N
Cosmos 2237 Rocket 3.3 05:47:04 10° WSW 05:51:20 22° WNW 05:55:38 10° NNW
ALOS 2.4 05:47:24 10° NNE 05:52:03 79° E 05:56:43 10° S
Ariane H10+ 4.4 05:40:53 10° WSW 05:53:12 28° SSW 05:58:14 10° SSE
Cosmos 921 Rocket 3.6 05:50:19 10° N 05:54:28 58° ENE 05:58:34 10° SSE
METEOR-M 4.2 05:50:05 10° NNE 05:55:25 89° ESE 06:00:45 10° SSW
Cosmos 2154 Rocket 4.1 05:51:09 10° SSW 05:57:10 54° W 06:03:11 10° N
PAYLOAD B 4.2 05:53:17 10° N 05:58:44 62° WNW 06:04:09 10° SSW
CZ-4B DEB 4.4 05:56:15 10° N 06:01:28 49° WNW 06:06:41 10° SSW
Cosmos 1707 4.1 06:00:57 10° SW 06:03:47 19° W 06:06:36 10° NW
Okean 1-7 Rocket 3.7 06:02:08 10° SSW 06:06:25 55° W 06:10:43 10° N
USA 238 DEB 4.4 05:59:50 10° NNW 06:07:10 65° ENE 06:14:34 10° SSE
USA 238 4.4 05:59:57 10° NNW 06:07:15 65° ENE 06:14:39 10° SE
Delta 168 4.4 05:58:56 10° W 06:07:24 56° NNW 06:12:54 10° ENE
Cosmos 292 Rocket 4.4 06:02:45 10° N 06:07:30 63° ENE 06:12:15 10° SSE
In-Cosmos 22 4.1 06:03:44 10° SSW 06:08:54 58° W 06:14:06 10° N
